Total_Precipitation_Accumulation
0.00 0.01 0.01 0.03 0.04 0.04 0.06 0.13 0.14 0.14 0.14 0.20 0.28 0.35 0.54 0.61 0.69 0.75 0.73 0.88 1.01 1.12 1.45 1.78 2.22 2.99 3.31 3.79 3.71 3.43 3.17 3.08 3.04 3.04 3.08 3.06 3.20 3.37 3.50 3.51 3.30 3.20 3.10 3.08
0.01 0.01 0.01 0.01 0.04 0.05 0.05 0.09 0.11 0.13 0.15 0.21 0.34 0.43 0.61 0.72 0.80 0.84 0.83 0.96 0.96 1.03 1.53 2.04 2.47 2.95 3.12 3.19 3.31 3.55 3.52 3.43 3.28 3.30 3.59 4.01 4.25 4.23 4.27 4.18 4.09 3.93 3.78 3.70
0.01 0.01 0.00 0.01 0.03 0.03 0.04 0.05 0.08 0.13 0.19 0.27 0.41 0.61 0.71 0.81 0.93 0.89 0.79 0.85 0.97 1.14 1.41 1.83 2.31 2.69 2.98 3.25 3.33 3.54 3.57 3.66 3.80 3.98 4.19 4.68 5.01 4.95 4.75 4.34 4.15 3.97 3.69 3.54
0.00 0.00 0.00 0.01 0.01 0.02 0.04 0.03 0.07 0.11 0.16 0.28 0.36 0.66 0.82 0.89 0.94 0.92 0.89 0.91 1.05 1.21 1.41 1.60 1.86 2.14 2.49 2.76 2.99 3.22 3.36 3.59 4.02 4.60 4.90 5.04 5.20 5.11 4.92 4.59 4.22 3.85 3.54 3.30
0.00 0.00 0.01 0.01 0.02 0.03 0.04 0.03 0.05 0.09 0.10 0.26 0.34 0.54 0.95 1.04 1.03 1.03 1.03 1.08 1.22 1.21 1.31 1.43 1.44 1.67 2.05 2.28 2.44 2.75 3.07 3.47 4.07 4.59 4.99 5.25 5.20 4.98 4.77 4.36 4.00 3.66 3.38 3.08
0.01 0.01 0.01 0.02 0.03 0.03 0.04 0.04 0.07 0.11 0.15 0.33 0.31 0.42 0.92 1.16 1.09 0.98 0.99 1.14 1.22 1.17 1.14 1.21 1.26 1.36 1.60 1.82 2.04 2.28 2.70 3.31 3.77 4.24 4.65 4.80 4.82 4.73 4.52 4.13 3.81 3.51 3.20 2.90
0.04 0.03 0.02 0.02 0.04 0.04 0.06 0.09 0.22 0.33 0.36 0.39 0.26 0.45 0.96 1.17 1.18 1.10 1.14 1.26 1.20 1.08 1.08 1.19 1.18 1.26 1.49 1.73 2.01 2.27 2.66 3.11 3.37 3.54 3.81 4.05 4.11 4.08 4.07 3.94 3.63 3.26 2.85 2.46
0.10 0.09 0.04 0.02 0.04 0.05 0.06 0.10 0.30 0.47 0.45 0.41 0.41 0.81 1.23 1.24 1.22 1.14 1.10 1.14 1.15 1.12 1.15 1.18 1.25 1.36 1.59 1.76 1.89 2.09 2.35 2.72 2.89 2.87 3.03 3.29 3.41 3.39 3.33 3.14 2.81 2.47 2.19 1.97
0.13 0.12 0.05 0.04 0.05 0.06 0.07 0.08 0.11 0.21 0.26 0.43 0.73 1.17 1.44 1.46 1.43 1.41 1.30 1.19 1.09 1.06 1.10 1.17 1.25 1.36 1.57 1.68 1.80 1.86 1.90 2.12 2.27 2.30 2.34 2.39 2.41 2.40 2.32 2.20 2.02 1.85 1.66 1.47
0.09 0.11 0.07 0.04 0.05 0.07 0.08 0.10 0.13 0.24 0.42 0.61 0.82 1.31 1.86 1.87 1.65 1.53 1.42 1.23 1.14 1.07 1.08 1.16 1.19 1.22 1.26 1.34 1.48 1.54 1.47 1.58 1.68 1.65 1.65 1.67 1.73 1.80 1.73 1.52 1.38 1.32 1.26 1.16
0.07 0.11 0.09 0.09 0.10 0.11 0.11 0.12 0.13 0.22 0.34 0.56 0.86 1.38 1.60 1.73 1.62 1.49 1.42 1.29 1.10 1.08 1.09 1.11 1.15 1.12 1.03 1.01 1.07 1.21 1.26 1.26 1.34 1.40 1.42 1.35 1.31 1.30 1.28 1.18 1.06 1.00 0.95 0.90
0.08 0.13 0.17 0.17 0.15 0.13 0.13 0.13 0.15 0.31 0.34 0.39 0.72 1.35 1.37 1.55 1.72 1.73 1.56 1.42 1.36 1.26 1.23 1.18 1.25 1.21 1.12 1.05 1.03 1.07 1.16 1.19 1.16 1.14 1.19 1.18 1.10 1.01 0.99 0.97 0.93 0.86 0.83 0.81
0.11 0.22 0.40 0.48 0.38 0.24 0.18 0.18 0.19 0.24 0.34 0.46 0.76 1.42 1.44 1.52 1.76 1.78 1.61 1.55 1.52 1.47 1.45 1.38 1.32 1.20 1.11 1.06 1.00 0.96 0.99 1.04 0.99 0.91 0.91 0.90 0.89 0.84 0.81 0.80 0.80 0.77 0.75 0.73
0.13 0.25 0.49 0.79 0.69 0.41 0.29 0.24 0.25 0.30 0.47 0.54 0.72 1.18 1.43 1.56 1.70 1.77 1.72 1.53 1.49 1.53 1.52 1.39 1.30 1.18 1.09 1.08 1.04 1.02 0.97 0.89 0.83 0.80 0.80 0.79 0.82 0.81 0.74 0.67 0.64 0.66 0.69 0.70
0.17 0.30 0.32 0.36 0.37 0.37 0.33 0.29 0.29 0.34 0.41 0.57 0.82 1.17 1.49 1.57 1.75 1.93 1.95 1.80 1.63 1.60 1.58 1.46 1.41 1.33 1.23 1.22 1.17 1.11 1.00 0.91 0.83 0.78 0.76 0.80 0.85 0.86 0.82 0.75 0.69 0.67 0.66 0.64
0.19 0.30 0.31 0.33 0.31 0.34 0.36 0.34 0.31 0.35 0.44 0.63 0.93 1.33 1.57 1.67 1.74 1.86 1.96 1.86 1.74 1.75 1.81 1.83 1.82 1.73 1.56 1.43 1.33 1.22 1.07 0.96 0.89 0.88 0.87 0.88 0.87 0.83 0.79 0.74 0.70 0.70 0.67 0.64
0.20 0.29 0.40 0.40 0.29 0.45 0.68 0.53 0.46 0.49 0.57 0.76 1.06 1.26 1.38 1.53 1.70 1.75 1.78 1.88 1.90 2.01 2.13 2.15 2.10 1.98 1.78 1.66 1.56 1.44 1.27 1.14 1.07 1.03 0.98 0.92 0.84 0.77 0.72 0.65 0.66 0.69 0.66 0.61
0.23 0.34 0.43 0.48 0.54 0.92 0.86 0.50 0.49 0.64 0.77 0.81 0.88 0.97 1.19 1.41 1.55 1.57 1.67 1.88 2.03 2.05 2.01 2.01 1.95 1.92 1.81 1.71 1.58 1.41 1.26 1.19 1.10 1.02 0.94 0.86 0.76 0.72 0.72 0.72 0.71 0.68 0.63 0.59
0.16 0.35 0.54 0.64 0.88 0.98 0.94 0.61 0.57 0.79 1.02 0.83 0.87 0.92 1.08 1.18 1.34 1.62 1.69 1.84 2.02 1.90 1.81 1.87 1.91 1.90 1.85 1.75 1.55 1.41 1.29 1.14 1.07 0.98 0.83 0.73 0.67 0.64 0.63 0.64 0.63 0.60 0.60 0.58
0.19 0.32 0.64 0.81 1.07 1.25 1.13 0.62 0.49 0.82 1.48 1.10 1.03 1.06 1.05 1.14 1.48 1.61 1.53 1.50 1.56 1.61 1.68 1.82 1.95 1.99 1.92 1.80 1.52 1.36 1.23 1.03 0.88 0.74 0.64 0.62 0.62 0.55 0.51 0.51 0.53 0.53 0.55 0.53
0.54 0.57 0.72 0.96 1.30 1.34 0.77 0.44 0.56 1.18 1.45 1.20 1.15 1.14 1.14 1.26 1.34 1.22 1.15 1.25 1.38 1.55 1.68 1.75 1.76 1.77 1.74 1.65 1.44 1.29 1.13 0.95 0.76 0.62 0.56 0.58 0.54 0.44 0.40 0.44 0.50 0.49 0.45 0.45
0.81 0.94 1.00 1.12 1.43 1.49 0.67 0.50 0.78 0.98 0.84 0.83 0.86 0.90 0.94 0.99 1.01 1.06 1.08 1.12 1.19 1.35 1.54 1.60 1.55 1.49 1.40 1.31 1.21 1.13 1.00 0.78 0.62 0.56 0.54 0.56 0.53 0.36 0.32 0.41 0.44 0.43 0.45 0.45
0.81 0.93 1.11 1.30 1.48 1.09 0.64 0.62 0.64 0.67 0.71 0.69 0.72 0.71 0.74 0.82 0.90 1.02 1.13 1.16 1.17 1.17 1.27 1.30 1.21 1.12 1.09 1.04 0.99 0.93 0.79 0.63 0.54 0.54 0.57 0.55 0.51 0.40 0.32 0.35 0.38 0.40 0.43 0.39
0.94 0.79 0.97 1.14 1.16 0.90 0.68 0.61 0.58 0.52 0.51 0.57 0.69 0.68 0.65 0.67 0.69 0.80 0.89 0.98 1.02 1.00 0.98 0.98 0.93 0.87 0.83 0.81 0.77 0.69 0.58 0.53 0.54 0.57 0.56 0.55 0.50 0.42 0.34 0.32 0.28 0.30 0.33 0.32
0.92 0.91 1.07 1.21 1.20 1.01 0.85 0.70 0.60 0.56 0.55 0.61 0.63 0.57 0.54 0.49 0.49 0.54 0.65 0.71 0.76 0.75 0.70 0.69 0.73 0.70 0.62 0.58 0.57 0.53 0.47 0.44 0.50 0.50 0.46 0.43 0.38 0.37 0.35 0.29 0.20 0.19 0.20 0.20
0.75 0.87 1.12 1.30 1.13 1.04 0.92 0.72 0.59 0.56 0.55 0.51 0.46 0.43 0.44 0.43 0.41 0.46 0.54 0.59 0.60 0.59 0.57 0.60 0.64 0.61 0.55 0.52 0.50 0.44 0.38 0.36 0.44 0.47 0.42 0.36 0.31 0.30 0.28 0.32 0.25 0.16 0.14 0.14